Regional Weather Roundup
Issued by NWS

Home | Current Version | Previous Version | Text Only | Print | Product List | Glossary Off
Versions: 1 2 3 4 5 6 7 8 9 10 11 12 13 14 15 16 17 18 19 20 21 22 23 24 25 26 27 28

000
ASUS45 KSLC 240110
RWRUT

UTAH REGIONAL WEATHER ROUNDUP
NATIONAL WEATHER SERVICE SALT LAKE CITY UT
600 PM MST FRI FEB 23 2018

UTZ001>011-023>025-240200-

NORTHERN UTAH

CITY           SKY/WX    TMP DP  RH WIND       PRES   REMARKS
BRIGHAM CITY   PTCLDY    27  14  59 W3        30.12R
HILL AFB       FLURRIES  22  16  78 CALM      30.09R
LOGAN          MOCLDY    22  16  78 SW5       30.10R WCI  16
OGDEN          CLOUDY    25  15  66 NW3       30.10R
SALT LAKE CITY LGT SNOW  26  21  81 N5        30.12R WCI  20
WENDOVER       CLEAR     31   7  36 NW15      30.13R WCI  20
HEBER CITY       N/A     25  14  63 SE5       29.99R WCI  19
WEST JORDAN    CLOUDY    22  21  96 N7        30.12R WCI  13

$$

UTZ011>015-024>027-240200-

CENTRAL/NORTHEAST UTAH

CITY           SKY/WX    TMP DP  RH WIND       PRES   REMARKS
PROVO AIRPORT  CLOUDY    25  18  74 NW13      30.12R WCI  14
MOAB/CANYONLAN CLOUDY    33  19  56 SW9       29.93R WCI  25
DELTA          MOCLDY    23  16  74 N7        30.11R WCI  15
PRICE          PTCLDY    26  11  52 NW10      29.93R WCI  16
RICHFIELD      PTCLDY    25   9  50 NW2       30.06R
VERNAL         LGT SNOW  25  22  88 E6        29.93R VSB 3/4 WCI  18

$$

UTZ013>016-019>022-027-240200-

SOUTHERN UTAH

CITY           SKY/WX    TMP DP  RH WIND       PRES   REMARKS
BRYCE CANYON   FLURRIES  20  13  74 NW9       29.93R WCI   9
CEDAR CITY     LGT SNOW  23  16  74 N15G23    30.02R WCI  10
MILFORD        MOCLDY    23  16  74 N10       30.08R WCI  12
ST GEORGE      MOCLDY    37  30  75 E5        30.10R WCI  33
HANKSVILLE     MOCLDY    32  25  74 CALM      29.99R
BLANDING         N/A     27  25  94 SE7       30.01R WCI  19

$$

REGIONAL REPORTS     COLORADO/ARIZONA

CITY           SKY/WX    TMP DP  RH WIND       PRES   REMARKS
CRAIG, CO      CLOUDY    27  17  66 W6        29.87R WCI  20
GRAND JUNCTION CLOUDY    34  26  72 W13       29.93R WCI  25
RIFLE, CO      CLOUDY    27  24  89 SE6       29.93R WCI  20
MONTROSE, CO   CLOUDY    28  21  75 E5        29.96S WCI  23
CORTEZ, CO     FLURRIES  26  23  88 NE5       29.95R WCI  20
COLORADO CITY    N/A     32  27  80 W8        30.04S WCI  25
PAGE, AZ       CLOUDY    35  27  72 N7        29.98R WCI  29
GRAND CANYON   CLOUDY    24  17  74 VRB6      29.95R WCI  17
KINGMAN, AZ    FLURRIES  36  27  69 NW9       30.09R WCI  29
FLAGSTAFF, AZ  SNOW      22  18  85 W3        29.94S VSB 1/2

$$

REGIONAL REPORTS    NEVADA/IDAHO/WYOMING

CITY           SKY/WX    TMP DP  RH WIND       PRES   REMARKS
LAS VEGAS, NV  MOCLDY    45  21  38 N10G20    30.11R
ELY, NY        PTCLDY    20   9  62 NW12      30.07R WCI   8
ELKO, NV       PTCLDY    24   8  50 W10       30.17R WCI  14
POCATELLO, ID  FLURRIES  21  14  74 SW18      30.13S WCI   6
BURLEY, ID     PTCLDY    21  11  65 W12       30.15R WCI   9
EVANSTON, WY   LGT SNOW  14  11  87 SW5       29.94R FOG     WCI   6
ROCK SPRINGS,  CLOUDY    13   8  81 SW20      29.90R HAZE    WCI  -5

$$




USA.gov is the U.S. government's official web portal to all federal, state and local government web resources and services.